Location: Caltech
(34.1382°N, 118.1253°W)
Time: 11:18:38
(UTC-08:00)

Gbstr 26 Del rocket - Visible Passes

Search period start: 19 January 2017 00:00
Search period end: 29 January 2017 00:00
Orbit: 494 x 1266 km, 51.8° (Epoch: 18 January)

Date Brightness Start Highest point End Pass type
(mag) Time Alt. Az. Time Alt. Az. Time Alt. Az.
19 Jan 4.4 05:40:35 10° SSW 05:45:35 55° SE 05:51:49 10° NE visible
20 Jan 3.9 05:36:13 10° SW 05:41:16 71° SE 05:47:38 10° NE visible
21 Jan 6.2 03:49:22 10° SE 03:51:03 12° ESE 03:53:02 10° E visible
21 Jan 3.6 05:32:02 11° SW 05:37:00 89° SE 05:43:24 10° NE visible
22 Jan 5.9 03:46:34 16° ESE 03:46:34 16° ESE 03:49:54 10° E visible
22 Jan 3.5 05:29:13 21° WSW 05:32:46 73° NW 05:39:08 10° NE visible
23 Jan 5.8 03:43:30 20° E 03:43:30 20° E 03:46:16 10° ENE visible
23 Jan 3.7 05:26:08 30° WSW 05:28:36 58° NW 05:34:49 10° NE visible
24 Jan 5.9 03:40:12 20° E 03:40:12 20° E 03:42:24 10° ENE visible
24 Jan 3.9 05:22:49 36° W 05:24:27 47° NW 05:30:30 10° NE visible
25 Jan 6.0 03:36:44 18° ENE 03:36:44 18° ENE 03:38:24 10° ENE visible
25 Jan 4.1 05:19:20 35° NW 05:20:21 38° NNW 05:26:09 10° NE visible
26 Jan 6.1 03:33:07 16° ENE 03:33:07 16° ENE 03:34:18 10° NE visible
26 Jan 4.4 05:15:43 31° NW 05:16:17 32° NNW 05:21:48 10° NE visible
27 Jan 6.2 03:29:23 14° NE 03:29:23 14° NE 03:30:08 10° NE visible
27 Jan 4.7 05:11:58 27° NNW 05:12:15 27° NNW 05:17:26 10° NNE visible
28 Jan 6.4 03:25:34 12° NE 03:25:34 12° NE 03:25:54 10° NE visible
28 Jan 4.9 05:08:09 23° NNW 05:08:15 23° NNW 05:13:05 10° NNE visible
